SCP
0 0 0 0 0 0 0 0 0 0 0 0 0 0 0 0 0 0 0 0 0 -0 -0 -0 -0 0 0 -0 -0 0 0 0 0 0 0 0 0 0 0 0 0 0 0 0
0 0 0 0 0 0 0 0 0 -0 0 0 0 0 0 0 0 0 0 0 0 0 0 0 -0 -0 0 -0 -0 0 0 0 0 0 0 0 0 0 0 0 0 0 0 0
0 0 0 0 0 0 0 0 0 0 0 0 0 0 0 0 0 0 0 0 0 0 0 0 0 0 -0 0 0 0 0 0 0 0 0 0 0 0 0 0 0 0 0 0
0 0 0 0 0 0 0 0 0 0 0 0 0 0 0 0 0 0 0 0 0 0 0 0 0 0 0 0 0 0 0 0 0 0 0 0 0 0 0 0 0 0 0 0
0 0 0 0 0 0 0 0 0 0 0 0 0 0 0 0 0 0 0 0 0 0 0 0 0 0 0 0 0 0 0 0 0 0 0 0 0 0 0 0 0 0 0 0
0 0 0 0 0 0 0 0 0 0 0 0 0 0 0 0 0 0 0 0 0 0 0 0 0 0 0 0 0 0 0 0 0 0 0 0 0 0 0 0 0 0 0 0
0 0 0 0 0 0 0 0 0 0 0 0 0 0 0 0 0 0 0 0 0 0 0 0 0 0 0 0 0 0 0 0 0 0 0 0 0 0 0 0 0 0 0 0
0 0 0 0 0 0 0 0 0 0 0 0 0 0 0 0 0 0 0 0 0 0 0 0 0 0 0 0 0 0 0 0 0 0 0 0 0 0 0 0 0 0 0 0
0 0 0 0 0 0 0 0 0 0 0 0 0 0 0 0 -0 0 0 0 0 0 0 0 0 0 0 0 0 0 0 0 0 0 0 0 0 0 0 0 0 0 0 0
0 0 0 0 0 0 0 0 0 0 0 0 0 0 0 0 -0 0 0 0 0 0 0 0 0 0 0 0 0 0 0 0 0 0 0 0 0 0 0 0 0 0 0 0
0 0 0 0 0 0 0 0 0 0 0 0 0 0 0 -0 -0 0 0 0 0 0 0 0 0 0 0 0 0 0 0 0 0 0 0 0 0 0 0 0 0 0 0 0
0 0 0 0 0 0 0 0 0 0 0 0 0 0 0 0 0 0 0 0 0 0 0 0 0 0 0 0 0 0 0 0 0 0 0 0 0 0 0 0 0 0 0 0
0 0 0 0 0 0 0 0 0 0 0 0 0 0 0 0 0 0 0 0 0 0 0 0 0 0 0 0 0 0 0 0 0 0 0 0 0 0 0 0 0 0 0 0
0 0 0 0 0 0 0 0 0 0 0 0 0 0 0 0 0 0 0 0 0 0 0 0 0 0 0 0 0 0 0 0 0 0 0 0 0 0 0 0 0 0 0 0
0 0 0 0 0 0 0 0 0 0 0 0 0 0 0 0 0 0 0 0 0 0 0 0 0 0 0 0 0 0 0 0 0 0 0 0 0 0 0 0 0 0 0 0
0 0 0 0 0 0 0 0 0 0 0 0 0 0 0 0 0 0 0 0 0 0 0 0 0 0 0 0 0 0 0 0 0 0 0 0 0 0 0 0 0 0 0 0
0 0 0 0 0 0 0 0 0 0 0 0 0 0 0 0 0 0 0 0 0 0 0 0 0 0 0 0 0 0 0 0 0 0 0 0 0 0 0 0 0 0 0 0
0 0 0 0 0 0 0 0 0 0 0 0 0 0 0 -0 0 0 0 0 0 0 0 0 0 0 0 0 0 0 0 0 0 0 0 0 0 0 0 0 0 0 0 0
0 0 0 0 0 0 0 -0 -0 -0 -0 0 0 0 0 0 0 0 0 0 0 0 0 0 0 0 0 0 0 0 0 0 0 0 0 0 0 0 0 0 0 0 0 0
0 0 0 0 0 0 0 -0 -0 -0 -0 0 0 0 0 0 0 0 0 0 0 0 0 0 0 0 0 0 0 0 0 0 0 0 0 0 0 0 0 0 0 0 0 0
0 0 0 0 0 0 0 0 0 -0 -0 0 0 0 0 0 0 0 0 0 0 0 0 0 0 0 0 0 0 0 0 0 0 0 0 0 0 0 0 0 0 0 0 0
0 0 0 0 0 0 0 0 0 0 0 0 0 0 0 0 0 0 0 0 0 0 0 0 0 0 0 0 0 0 0 0 0 0 0 0 0 0 0 0 0 0 0 0
0 0 0 0 0 0 0 0 0 0 0 0 0 0 0 0 0 0 0 0 0 0 0 0 0 0 0 0 0 0 0 0 0 0 0 0 0 0 0 0 0 0 0 0
0 0 0 0 0 0 0 0 0 0 0 0 0 0 0 0 0 0 0 0 0 0 0 0 0 0 0 0 0 0 0 0 0 0 0 0 0 0 0 0 0 0 0 0
-0 0 0 0 0 0 0 0 0 0 0 0 0 0 0 0 0 0 0 0 0 0 0 0 0 0 0 0 0 0 0 0 0 0 0 0 0 0 0 0 0 0 0 0
0 0 0 0 0 0 -0 -0 0 0 0 0 0 0 0 0 0 0 0 0 0 0 0 0 0 0 0 0 0 0 0 0 0 0 0 0 0 0 0 0 0 0 0 0
0 0 0 0 0 -0 -0 -0 0 0 0 -0 0 0 0 0 0 0 0 0 0 0 0 0 0 0 0 0 0 0 0 0 0 0 0 0 0 0 0 0 0 0 0 0
Wind_Speed
5 4 4 4 6 8 7 8 9 9 9 11 9 11 11 10 9 9 9 10 12 11 9 8 8 7 7 7 6 6 6 6 6 5 4 3 3 3 3 3 4 4 4 4
2 3 3 4 6 8 8 6 7 5 9 10 5 5 7 9 11 12 12 13 12 11 11 10 10 9 8 8 7 6 7 7 5 4 4 4 4 3 3 4 4 4 4 5
3 1 1 5 8 8 6 6 8 9 10 3 4 9 12 12 13 14 14 14 14 14 13 12 11 10 10 9 7 7 6 6 5 5 5 5 4 3 4 4 4 4 5 5
2 2 6 9 3 5 5 6 7 7 6 6 8 7 6 8 13 13 12 12 12 11 11 9 9 8 8 7 8 7 6 6 5 5 5 5 4 4 5 4 4 4 5 6
3 3 6 6 2 3 4 5 5 6 5 3 2 3 1 6 10 12 14 12 11 11 10 9 10 9 9 8 7 7 7 7 7 6 6 5 5 6 4 4 5 5 5 6
3 4 6 8 2 2 3 5 3 3 4 4 6 4 6 7 9 8 7 8 8 8 7 9 9 9 10 9 8 9 9 8 7 6 6 6 6 6 4 4 5 5 6 6
4 4 8 6 1 3 4 7 2 2 3 6 7 6 3 6 7 7 7 7 8 9 9 9 10 11 10 9 10 10 7 6 6 6 6 6 5 4 4 4 5 5 7 7
4 3 9 2 2 5 6 3 2 2 3 5 4 1 1 4 6 8 8 8 9 9 8 7 10 11 10 10 9 6 6 6 6 6 5 5 5 5 4 4 5 6 6 7
8 8 5 2 4 4 2 3 3 3 3 3 3 2 2 3 5 7 8 9 8 9 8 7 9 10 11 9 6 6 6 6 5 5 5 4 4 5 4 4 4 5 5 6
4 7 6 6 5 4 4 6 5 4 3 2 3 2 2 3 4 5 6 8 8 9 9 8 8 8 7 5 7 7 6 6 4 4 5 4 4 4 5 5 5 5 6 6
5 7 6 5 3 3 3 4 3 1 2 2 3 2 3 3 4 5 5 6 7 9 9 8 8 7 6 6 7 6 6 5 4 4 5 4 5 5 7 7 7 7 6 6
6 6 4 4 3 1 1 2 1 1 1 2 3 3 3 3 3 5 6 6 7 7 6 6 6 5 4 5 6 6 5 4 4 4 4 4 5 5 9 11 12 14 14 12
5 3 3 3 2 2 0 1 1 1 2 2 2 3 4 3 3 4 5 6 7 7 6 6 6 5 4 5 6 6 5 4 3 4 4 4 4 5 6 6 9 12 13 14
3 1 1 2 2 3 2 2 3 4 4 4 3 4 5 5 4 5 5 5 6 6 5 5 5 4 4 5 5 5 5 5 4 4 4 4 5 5 5 6 7 6 7 10
1 1 1 2 4 5 4 5 7 7 6 6 5 5 5 5 4 3 3 5 6 5 4 4 3 3 3 5 5 5 4 3 3 3 3 4 4 5 5 6 6 7 7 8
3 4 5 7 7 6 6 7 7 6 5 4 5 5 5 5 4 4 4 5 6 4 3 3 3 3 3 4 4 3 3 3 3 3 3 4 4 4 5 5 6 6 7 8
5 4 5 6 6 6 5 5 5 4 4 4 4 4 6 6 5 4 4 4 4 3 2 3 2 1 2 3 3 2 2 2 3 3 3 4 4 5 5 5 6 6 7 8
5 4 5 5 5 5 5 5 5 5 4 3 4 5 5 5 4 3 3 4 4 3 2 1 1 1 2 2 2 2 1 2 2 3 3 3 4 5 5 5 6 8 7 8
8 7 7 6 5 5 4 5 4 4 4 4 4 4 3 3 3 3 4 5 4 2 1 1 1 1 1 1 2 1 1 1 2 3 3 4 5 4 5 5 6 7 7 7
8 7 8 7 7 6 4 4 4 4 4 3 4 4 4 3 3 3 4 3 1 1 1 1 1 1 1 1 1 1 1 2 3 3 3 4 4 5 5 6 6 7 7 6
7 8 7 6 6 5 4 4 4 4 3 3 3 3 2 2 2 3 3 1 2 1 0 0 0 1 1 1 1 1 2 2 3 3 4 4 5 5 6 6 6 6 7 7
6 6 6 5 5 5 5 4 4 3 3 3 3 3 3 3 3 2 1 1 2 1 1 1 1 1 1 1 1 1 2 3 3 3 4 4 4 5 6 6 6 6 6 6
4 4 4 3 3 3 4 5 5 3 3 2 2 2 2 1 1 1 1 2 1 1 0 1 1 2 2 1 1 2 2 3 3 4 4 4 5 5 5 6 6 6 6 7
3 2 2 2 2 3 3 3 3 3 2 2 2 1 1 1 1 1 1 2 2 1 1 1 2 2 1 1 1 2 3 3 4 4 4 4 5 5 5 5 6 6 7 9
1 1 2 2 2 1 1 2 3 3 3 2 2 2 1 0 0 1 1 2 2 1 1 2 2 2 1 1 2 2 3 3 4 4 4 5 5 5 6 6 6 7 7 7
1 1 1 1 1 1 0 0 1 1 1 2 2 2 2 1 1 1 1 2 2 2 2 2 2 2 2 2 3 3 3 4 4 4 5 5 5 6 6 6 9 7 7 7
1 1 1 2 2 1 1 1 0 1 1 1 1 2 2 2 2 2 2 2 2 2 2 2 2 3 3 3 3 3 3 4 4 4 4 4 5 5 6 8 7 7 7 6
Wind_Direction
223 223 179 204 202 180 185 189 190 224 225 243 221 205 201 189 176 169 174 180 182 184 184 181 177 179 180 181 177 172 171 184 202 205 205 210 223 236 244 248 254 258 265 272
246 225 201 235 235 210 212 204 215 238 254 247 220 177 181 179 175 181 186 190 189 186 182 184 183 182 180 182 179 170 179 196 201 197 201 212 226 237 247 255 261 262 262 266
233 272 117 251 229 206 210 205 187 214 238 218 185 193 193 187 185 191 191 189 187 188 188 188 186 179 182 182 169 172 187 195 194 195 207 221 227 231 242 249 252 261 264 263
169 127 224 242 237 197 207 234 214 231 244 216 217 210 196 183 185 192 190 188 189 187 187 184 175 171 170 161 166 178 188 196 197 197 212 223 225 236 243 243 248 256 263 264
146 198 264 287 243 184 191 257 220 226 249 231 147 91 271 204 191 193 188 184 184 183 179 171 170 166 158 163 170 181 194 201 202 200 208 216 227 238 239 239 251 253 260 263
148 176 231 246 235 180 133 271 248 211 223 173 135 155 242 201 183 186 178 171 168 160 152 162 167 157 159 170 178 196 203 204 202 198 205 217 227 234 231 232 250 262 267 263
173 215 257 252 250 124 164 242 272 220 207 178 187 203 218 155 169 170 167 162 152 153 164 173 160 156 168 177 197 204 196 193 197 202 210 220 227 229 233 242 257 264 270 273
154 199 255 245 142 185 220 270 267 241 210 198 218 250 152 157 163 159 156 152 153 159 168 160 159 164 175 195 203 186 181 192 204 209 216 219 221 237 236 238 257 268 273 282
189 215 246 232 221 244 230 255 255 241 242 195 194 201 183 173 167 163 161 159 157 159 159 161 170 173 185 201 179 171 182 201 211 214 218 217 220 237 243 238 246 262 265 273
263 268 261 256 255 257 237 239 253 247 236 190 192 185 166 170 168 161 158 157 152 151 161 173 179 188 194 173 162 170 191 208 209 213 227 227 226 229 233 241 246 255 260 265
259 275 295 289 253 257 262 263 267 266 180 179 159 156 156 162 165 157 150 149 152 161 171 177 175 185 186 168 163 178 196 209 215 221 229 239 239 232 232 235 229 234 249 250
232 241 219 265 280 267 270 295 285 82 73 99 127 138 136 151 153 146 144 142 147 156 159 160 160 172 178 167 167 175 195 213 218 224 231 238 252 266 244 241 251 243 243 245
239 258 228 264 308 328 355 14 53 109 122 104 94 123 130 124 128 132 134 141 153 160 158 153 155 173 185 175 172 181 199 213 219 225 233 242 247 256 277 278 259 258 255 252
237 241 322 342 7 6 34 63 65 60 59 78 90 93 100 102 111 129 144 154 149 142 141 146 156 188 189 171 176 194 208 221 222 229 237 244 248 251 256 269 285 286 274 264
349 138 163 64 53 43 48 69 70 57 48 47 64 82 92 100 110 126 128 122 118 118 128 141 164 205 183 177 186 200 211 228 231 237 243 248 254 259 261 264 268 276 287 289
43 61 74 71 64 53 54 63 70 59 52 52 60 72 90 100 102 103 103 115 122 138 154 161 193 215 182 179 186 196 216 244 245 246 257 260 259 260 265 268 271 274 276 279
84 67 68 71 64 56 51 58 72 70 59 59 63 76 86 92 92 88 92 106 120 132 147 162 193 193 165 172 174 189 209 247 258 254 255 259 263 265 267 270 273 275 276 275
82 89 94 96 86 67 50 51 57 59 57 49 61 71 80 94 103 104 106 103 92 73 54 122 160 142 145 161 171 183 207 238 251 261 266 266 269 268 270 273 278 281 285 288
70 75 74 72 73 72 57 49 46 49 53 63 74 82 86 90 97 96 93 97 103 99 307 316 98 121 146 168 157 170 209 249 269 269 268 276 281 279 279 279 281 283 285 287
63 67 68 61 55 57 55 49 46 43 42 64 79 80 74 64 76 88 95 95 141 207 227 222 151 173 220 223 181 186 217 250 265 273 276 278 281 285 287 288 288 288 287 285
54 53 55 54 45 36 32 37 42 35 27 55 79 87 87 68 75 95 98 70 316 318 297 236 185 243 254 255 238 221 239 256 265 270 276 280 284 287 289 293 294 293 291 291
53 48 44 39 34 22 12 17 26 26 32 47 63 79 78 59 55 61 81 212 271 324 24 345 306 292 304 306 263 264 269 271 274 276 277 280 282 285 290 295 296 296 295 294
51 43 35 29 25 18 18 20 23 30 36 41 57 74 84 88 89 92 325 306 307 334 1 301 299 314 328 353 298 288 287 286 286 283 282 283 283 282 284 290 292 294 295 296
46 36 14 4 30 42 22 356 6 18 19 17 26 53 91 70 11 313 265 306 332 351 337 312 324 326 339 346 307 301 298 296 293 289 288 288 287 287 288 289 291 292 293 296
69 46 28 20 25 358 317 345 14 18 23 22 12 12 16 81 216 291 313 323 332 344 318 309 314 318 319 300 293 292 294 294 294 294 291 290 290 292 293 293 293 295 295 296
20 354 298 252 241 250 269 45 32 349 359 7 352 348 350 352 345 337 334 325 324 316 304 305 308 304 293 284 282 283 288 294 297 294 291 290 290 291 293 297 298 297 296 295
20 27 20 7 356 344 357 58 53 314 314 297 298 312 321 329 335 330 325 316 309 306 306 307 304 297 292 287 283 283 286 287 288 287 288 289 291 294 298 298 298 298 299 299